Flag for Germany Weather past 2 weeks in Bernburg (Saale), Saxony-Anhalt, Germany

Now
62 °F

Light rain. Low clouds.


Feels Like: 62 °F
Forecast: 54 / 87 °F
Wind: 5 mph from North

Location: Magdeburg

Current Time: Jul 25, 2014 at 3:45:40 AM

Latest Report: Jul 25, 2014 at 3:00 AM


Visibility: 4 mi

Pressure: 29.98 "Hg

Humidity: 95%

Dew point: 60 °F

Location of Bernburg (Saale)Location

Historic Weather in Bernburg (Saale) — Graph

°F

Bernburg (Saale) temperature yesterday

Maximum temperature yesterday: 75 °F (at 4:00 PM)
Minimum temperature yesterday: 62 °F (at 5:00 AM)
Average temperature yesterday: 68 °F

Past Weeks' High & Low Weather Summary

 TemperatureHumidityPressure
High93 °F (Jul 20, 3:00 PM)98% (Jul 11, 6:00 AM)30.20 "Hg (Jul 11, 6:00 AM)
Low54 °F (Jul 12, 4:00 AM)20% (Jul 19, 6:00 PM)29.70 "Hg (Jul 10, 3:00 AM)
Average71 °F66%29.96 "Hg
* Reported Jul 10 2:00 AM — Jul 25 2:00 AM, Bernburg (Saale), Weather by CustomWeather, © 2014

Note: Actual official high and low records may vary slightly from our data, if they occured in-between our weather recording intervals... More about our weather records

Advertising

Bernburg (Saale) weather history for previous 24 hours

 ConditionsComfort  
Time TempWeatherWind HumidityBarometerVisibility
2:00 AM
Jul 25
61 °FRain. Low clouds.5 mph96%30.00 "Hg2 mi
1:00 AM61 °FRain. Low clouds.3 mph96%30.01 "Hg2 mi
12:00 AM63 °FRain. Overcast.3 mph91%30.02 "Hg2 mi
10:00 PM
Jul 24
65 °FOvercast.2 mph87%30.02 "Hg13 mi
9:00 PM64 °FOvercast.2 mph87%30.03 "Hg11 mi
8:00 PM69 °FOvercast.6 mph64%30.02 "Hg9 mi
7:00 PM73 °FOvercast.3 mph52%30.00 "Hg28 mi
6:00 PM74 °FOvercast.3 mph53%30.00 "Hg22 mi
4:00 PM75 °FPartly sunny.3 mph56%30.01 "Hg28 mi
3:00 PM73 °FOvercast.3 mph60%30.03 "Hg28 mi
2:00 PM72 °FOvercast.3 mph59%30.04 "Hg28 mi
1:00 PM71 °FOvercast.3 mph59%30.03 "Hg28 mi
12:00 PM71 °FOvercast.3 mph58%30.03 "Hg25 mi
10:00 AM71 °FPartly sunny.5 mph58%30.03 "Hg22 mi
9:00 AM69 °FScattered clouds.3 mph63%30.03 "Hg19 mi
8:00 AM67 °FScattered clouds.3 mph66%30.04 "Hg19 mi
7:00 AM65 °FPartly sunny.2 mph75%30.03 "Hg19 mi
6:00 AM63 °FOvercast.2 mph79%30.03 "Hg19 mi
5:00 AM62 °FOvercast.2 mph81%30.03 "Hg16 mi
4:00 AM62 °FOvercast.2 mph77%30.03 "Hg18 mi
3:00 AM65 °FOvercast.2 mph69%30.03 "Hg25 mi
Weather by CustomWeather, © 2014

See weather overviewHow to use our weather pages